Location: Deurze
(52.9838°N, 6.6090°E)
Time: 18:40:03
(UTC+00:00)

Cosmos 1656 Rocket - Pass Details

Date: 11 March 2026
Orbit: 795 x 843 km, 71.1° (Epoch: 20 April)

Event Time Altitude Azimuth Distance (km) Brightness Sun altitude
Rises 19:09:27 0° 201° (SSW) 3,339 6.9 -15.6°
Reaches altitude 10° 19:11:53 10° 199° (SSW) 2,403 6.1 -15.9°
Maximum altitude 19:17:20 69° 117° (ESE) 865 3.5 -16.7°
Drops below altitude 10° 19:22:46 10° 35° (NE) 2,390 5.9 -17.5°
Sets 19:25:11 0° 33° (NNE) 3,319 6.7 -17.8°
